Time,TemperatureF,DewpointF,PressureIn,WindDirection,WindDirectionDegrees,WindSpeedMPH,WindSpeedGustMPH,Humidity,HourlyPrecipIn,Conditions,Clouds,dailyrainin,SoftwareType,DateUTC
2013-04-11 00:04:00,64.5,49.4,30.05,North,355,1.0,3.0,58,0.00,,,0.00,WeatherCatV1.14B232,2013-04-11 07:04:00,
2013-04-11 00:09:00,64.5,49.4,30.05,NW,326,0.0,0.0,58,0.00,,,0.00,WeatherCatV1.14B232,2013-04-11 07:09:00,
2013-04-11 00:14:00,64.5,49.4,30.05,NW,326,0.0,0.0,58,0.00,,,0.00,WeatherCatV1.14B232,2013-04-11 07:14:00,
2013-04-11 00:19:00,65.1,49.0,30.05,SW,228,0.0,3.0,56,0.00,,,0.00,WeatherCatV1.14B232,2013-04-11 07:19:00,
2013-04-11 00:25:00,65.1,48.5,30.04,NE,43,1.0,3.0,55,0.00,,,0.00,WeatherCatV1.14B232,2013-04-11 07:25:00,
2013-04-11 00:30:00,65.2,48.6,30.05,South,179,0.0,1.0,55,0.00,,,0.00,WeatherCatV1.14B232,2013-04-11 07:30:00,
2013-04-11 00:35:00,65.2,48.1,30.05,NE,48,0.0,3.0,54,0.00,,,0.00,WeatherCatV1.14B232,2013-04-11 07:35:00,
2013-04-11 00:40:00,65.2,48.6,30.05,WSW,255,5.0,5.0,55,0.00,,,0.00,WeatherCatV1.14B232,2013-04-11 07:40:00,
2013-04-11 00:45:00,65.0,48.9,30.05,NE,49,1.0,1.0,56,0.00,,,0.00,WeatherCatV1.14B232,2013-04-11 07:45:00,
2013-04-11 00:50:00,64.7,49.1,30.05,NE,43,0.0,0.0,57,0.00,,,0.00,WeatherCatV1.14B232,2013-04-11 07:50:00,
2013-04-11 00:55:00,64.1,49.5,30.05,SW,224,2.0,2.0,59,0.00,,,0.00,WeatherCatV1.14B232,2013-04-11 07:55:00,
2013-04-11 01:00:00,63.4,49.7,30.05,WSW,253,0.0,2.0,61,0.00,,,0.00,WeatherCatV1.14B232,2013-04-11 08:00:00,
2013-04-11 01:05:00,62.7,49.9,30.05,SW,225,0.0,0.0,63,0.00,,,0.00,WeatherCatV1.14B232,2013-04-11 08:05:00,
2013-04-11 01:10:00,62.0,50.1,30.04,West,270,0.0,0.0,65,0.00,,,0.00,WeatherCatV1.14B232,2013-04-11 08:10:00,
2013-04-11 01:15:00,61.3,50.2,30.04,North,0,0.0,0.0,67,0.00,,,0.00,WeatherCatV1.14B232,2013-04-11 08:15:00,
2013-04-11 01:20:00,60.8,49.8,30.04,NNW,338,0.0,3.0,67,0.00,,,0.00,WeatherCatV1.14B232,2013-04-11 08:20:00,
2013-04-11 01:25:00,60.5,49.5,30.04,West,262,3.0,3.0,67,0.00,,,0.00,WeatherCatV1.14B232,2013-04-11 08:25:00,
2013-04-11 01:30:00,60.5,49.1,30.04,West,276,1.0,3.0,66,0.00,,,0.00,WeatherCatV1.14B232,2013-04-11 08:30:00,
2013-04-11 01:35:00,60.4,49.4,30.04,North,0,0.0,1.0,67,0.00,,,0.00,WeatherCatV1.14B232,2013-04-11 08:35:00,
2013-04-11 01:40:00,59.8,49.2,30.03,North,359,1.0,3.0,68,0.00,,,0.00,WeatherCatV1.14B232,2013-04-11 08:40:00,
2013-04-11 01:45:00,59.4,48.8,30.04,NE,44,0.0,3.0,68,0.00,,,0.00,WeatherCatV1.14B232,2013-04-11 08:45:00,
2013-04-11 01:50:00,59.0,48.5,30.04,North,355,2.0,4.0,68,0.00,,,0.00,WeatherCatV1.14B232,2013-04-11 08:50:00,
2013-04-11 01:55:00,58.8,48.3,30.03,SW,223,1.0,2.0,68,0.00,,,0.00,WeatherCatV1.14B232,2013-04-11 08:55:00,
2013-04-11 02:00:00,58.7,48.2,30.04,WNW,300,2.0,4.0,68,0.00,,,0.00,WeatherCatV1.14B232,2013-04-11 09:00:00,
2013-04-11 02:05:00,58.7,48.2,30.03,WSW,252,1.0,1.0,68,0.00,,,0.00,WeatherCatV1.14B232,2013-04-11 09:05:00,
2013-04-11 02:10:00,58.4,48.3,30.03,WSW,246,1.0,2.0,69,0.00,,,0.00,WeatherCatV1.14B232,2013-04-11 09:10:00,
2013-04-11 02:15:00,58.2,48.1,30.03,NE,49,0.0,1.0,69,0.00,,,0.00,WeatherCatV1.14B232,2013-04-11 09:15:00,
2013-04-11 02:20:00,57.9,48.2,30.03,NNE,18,1.0,1.0,70,0.00,,,0.00,WeatherCatV1.14B232,2013-04-11 09:20:00,
2013-04-11 02:25:00,57.6,47.9,30.03,NE,50,1.0,2.0,70,0.00,,,0.00,WeatherCatV1.14B232,2013-04-11 09:25:00,
2013-04-11 02:30:00,57.4,47.3,30.02,West,271,1.0,2.0,69,0.00,,,0.00,WeatherCatV1.14B232,2013-04-11 09:30:00,
2013-04-11 02:35:00,57.3,46.8,30.02,WSW,246,1.0,2.0,68,0.00,,,0.00,WeatherCatV1.14B232,2013-04-11 09:35:00,
2013-04-11 02:40:00,57.2,46.7,30.02,NW,307,0.0,2.0,68,0.00,,,0.00,WeatherCatV1.14B232,2013-04-11 09:40:00,
2013-04-11 02:45:00,57.1,46.6,30.01,SSE,150,2.0,3.0,68,0.00,,,0.00,WeatherCatV1.14B232,2013-04-11 09:45:00,
2013-04-11 02:50:00,57.2,46.3,30.01,WSW,243,2.0,2.0,67,0.00,,,0.00,WeatherCatV1.14B232,2013-04-11 09:50:00,
2013-04-11 02:55:00,57.0,46.5,30.00,West,260,1.0,2.0,68,0.00,,,0.00,WeatherCatV1.14B232,2013-04-11 09:55:00,
2013-04-11 03:00:00,56.8,46.4,30.01,SSW,211,1.0,2.0,68,0.00,,,0.00,WeatherCatV1.14B232,2013-04-11 10:00:00,
2013-04-11 03:05:00,56.5,46.5,30.01,WSW,243,2.0,3.0,69,0.00,,,0.00,WeatherCatV1.14B232,2013-04-11 10:05:00,
2013-04-11 03:10:00,56.1,46.1,30.01,North,359,0.0,0.0,69,0.00,,,0.00,WeatherCatV1.14B232,2013-04-11 10:10:00,
2013-04-11 03:15:00,56.0,46.0,30.00,NNE,18,1.0,2.0,69,0.00,,,0.00,WeatherCatV1.14B232,2013-04-11 10:15:00,
2013-04-11 03:20:00,55.9,45.5,30.00,South,190,3.0,6.0,68,0.00,,,0.00,WeatherCatV1.14B232,2013-04-11 10:20:00,
2013-04-11 03:25:00,56.1,44.9,30.00,NNE,20,1.0,8.0,66,0.00,,,0.00,WeatherCatV1.14B232,2013-04-11 10:25:00,
2013-04-11 03:30:00,56.2,44.6,30.01,SW,224,0.0,3.0,65,0.00,,,0.00,WeatherCatV1.14B232,2013-04-11 10:30:00,
2013-04-11 03:35:00,56.1,44.9,30.00,West,273,2.0,5.0,66,0.00,,,0.00,WeatherCatV1.14B232,2013-04-11 10:35:00,
2013-04-11 03:40:00,55.8,44.6,30.01,WSW,240,4.0,6.0,66,0.00,,,0.00,WeatherCatV1.14B232,2013-04-11 10:40:00,
2013-04-11 03:45:00,55.4,44.6,30.00,SSW,210,1.0,11.0,67,0.00,,,0.00,WeatherCatV1.14B232,2013-04-11 10:45:00,
2013-04-11 03:50:00,54.8,44.8,30.00,NE,39,1.0,9.0,69,0.00,,,0.00,WeatherCatV1.14B232,2013-04-11 10:50:00,
2013-04-11 03:55:00,54.2,44.6,30.01,SW,217,3.0,3.0,70,0.00,,,0.00,WeatherCatV1.14B232,2013-04-11 10:55:00,
2013-04-11 04:00:00,53.9,44.7,30.01,NNE,30,0.0,1.0,71,0.00,,,0.00,WeatherCatV1.14B232,2013-04-11 11:00:00,
2013-04-11 04:05:00,53.6,44.8,30.00,NW,317,0.0,3.0,72,0.00,,,0.00,WeatherCatV1.14B232,2013-04-11 11:05:00,
2013-04-11 04:10:00,53.4,45.0,30.00,West,264,3.0,7.0,73,0.00,,,0.00,WeatherCatV1.14B232,2013-04-11 11:10:00,
2013-04-11 04:15:00,53.4,45.0,30.01,NE,39,0.0,3.0,73,0.00,,,0.00,WeatherCatV1.14B232,2013-04-11 11:15:00,
2013-04-11 04:20:00,53.2,44.8,30.01,NNE,30,1.0,3.0,73,0.00,,,0.00,WeatherCatV1.14B232,2013-04-11 11:20:00,
2013-04-11 04:25:00,52.9,44.8,30.01,SW,232,0.0,2.0,74,0.00,,,0.00,WeatherCatV1.14B232,2013-04-11 11:25:00,
2013-04-11 04:30:00,52.6,44.9,30.02,West,274,0.0,2.0,75,0.00,,,0.00,WeatherCatV1.14B232,2013-04-11 11:30:00,
2013-04-11 04:35:00,52.3,44.6,30.02,SW,235,0.0,3.0,75,0.00,,,0.00,WeatherCatV1.14B232,2013-04-11 11:35:00,
2013-04-11 04:40:00,52.0,44.7,30.02,WSW,240,0.0,4.0,76,0.00,,,0.00,WeatherCatV1.14B232,2013-04-11 11:40:00,
2013-04-11 04:45:00,51.8,44.5,30.02,North,4,0.0,0.0,76,0.00,,,0.00,WeatherCatV1.14B232,2013-04-11 11:45:00,
2013-04-11 04:50:00,51.8,44.5,30.01,West,278,1.0,2.0,76,0.00,,,0.00,WeatherCatV1.14B232,2013-04-11 11:50:00,
2013-04-11 04:55:00,51.8,44.5,30.01,NNE,17,0.0,0.0,76,0.00,,,0.00,WeatherCatV1.14B232,2013-04-11 11:55:00,
2013-04-11 05:00:00,51.7,44.4,30.01,WSW,243,0.0,0.0,76,0.00,,,0.00,WeatherCatV1.14B232,2013-04-11 12:00:00,
2013-04-11 05:05:00,51.6,44.6,30.01,SW,236,0.0,0.0,77,0.00,,,0.00,WeatherCatV1.14B232,2013-04-11 12:05:00,
2013-04-11 05:10:00,51.3,44.7,30.01,NE,41,0.0,0.0,78,0.00,,,0.00,WeatherCatV1.14B232,2013-04-11 12:10:00,
2013-04-11 05:15:00,51.0,44.4,30.00,NE,41,0.0,0.0,78,0.00,,,0.00,WeatherCatV1.14B232,2013-04-11 12:15:00,
2013-04-11 05:20:00,50.7,44.4,30.00,NE,41,0.0,0.0,79,0.00,,,0.00,WeatherCatV1.14B232,2013-04-11 12:20:00,
2013-04-11 05:25:00,50.5,44.2,30.00,NE,41,0.0,0.0,79,0.00,,,0.00,WeatherCatV1.14B232,2013-04-11 12:25:00,
2013-04-11 05:30:00,50.3,44.4,30.00,NE,41,0.0,0.0,80,0.00,,,0.00,WeatherCatV1.14B232,2013-04-11 12:30:00,
2013-04-11 05:35:00,50.2,44.3,30.00,NE,41,0.0,0.0,80,0.00,,,0.00,WeatherCatV1.14B232,2013-04-11 12:35:00,
2013-04-11 05:40:00,50.3,44.4,30.00,NE,41,0.0,0.0,80,0.00,,,0.00,WeatherCatV1.14B232,2013-04-11 12:40:00,
2013-04-11 05:45:00,50.2,44.3,30.00,NE,41,0.0,0.0,80,0.00,,,0.00,WeatherCatV1.14B232,2013-04-11 12:45:00,
2013-04-11 05:50:00,50.0,44.1,30.00,NW,304,0.0,0.0,80,0.00,,,0.00,WeatherCatV1.14B232,2013-04-11 12:50:00,
2013-04-11 05:55:00,50.0,44.1,30.00,WNW,303,0.0,0.0,80,0.00,,,0.00,WeatherCatV1.14B232,2013-04-11 12:55:00,
2013-04-11 06:00:00,50.0,44.1,30.00,WSW,256,0.0,0.0,80,0.00,,,0.00,WeatherCatV1.14B232,2013-04-11 13:00:00,
2013-04-11 06:05:00,50.0,44.1,30.00,SW,225,0.0,0.0,80,0.00,,,0.00,WeatherCatV1.14B232,2013-04-11 13:05:00,
2013-04-11 06:10:00,50.0,44.1,30.00,WSW,239,0.0,0.0,80,0.00,,,0.00,WeatherCatV1.14B232,2013-04-11 13:10:00,
2013-04-11 06:15:00,50.0,44.1,30.00,West,262,0.0,0.0,80,0.00,,,0.00,WeatherCatV1.14B232,2013-04-11 13:15:00,
2013-04-11 06:20:00,50.2,44.3,30.00,WSW,238,0.0,0.0,80,0.00,,,0.00,WeatherCatV1.14B232,2013-04-11 13:20:00,
2013-04-11 06:25:00,50.1,44.5,30.00,SW,233,0.0,0.0,81,0.00,,,0.00,WeatherCatV1.14B232,2013-04-11 13:25:00,
2013-04-11 06:30:00,50.1,44.5,30.00,SW,233,0.0,0.0,81,0.00,,,0.00,WeatherCatV1.14B232,2013-04-11 13:30:00,
2013-04-11 06:35:00,49.9,44.3,30.00,SW,234,0.0,0.0,81,0.00,,,0.00,WeatherCatV1.14B232,2013-04-11 13:35:00,
2013-04-11 06:40:00,49.7,44.1,30.00,SW,233,0.0,0.0,81,0.00,,,0.00,WeatherCatV1.14B232,2013-04-11 13:40:00,
2013-04-11 06:45:00,49.5,44.2,30.00,SW,234,0.0,0.0,82,0.00,,,0.00,WeatherCatV1.14B232,2013-04-11 13:45:00,
2013-04-11 06:50:00,49.5,44.2,30.01,SW,233,0.0,0.0,82,0.00,,,0.00,WeatherCatV1.14B232,2013-04-11 13:50:00,
2013-04-11 06:55:00,49.5,44.2,30.01,SW,235,0.0,0.0,82,0.00,,,0.00,WeatherCatV1.14B232,2013-04-11 13:55:00,
2013-04-11 07:00:00,49.6,44.3,30.01,ENE,60,0.0,0.0,82,0.00,,,0.00,WeatherCatV1.14B232,2013-04-11 14:00:00,
2013-04-11 07:05:00,49.6,44.3,30.02,ENE,61,0.0,0.0,82,0.00,,,0.00,WeatherCatV1.14B232,2013-04-11 14:05:00,
2013-04-11 07:12:00,49.7,44.4,30.01,NE,56,0.0,0.0,82,0.00,,,0.00,WeatherCatV1.14B232,2013-04-11 14:12:00,
2013-04-11 07:17:00,49.9,44.6,30.01,NE,56,0.0,0.0,82,0.00,,,0.00,WeatherCatV1.14B232,2013-04-11 14:17:00,
2013-04-11 07:22:00,50.0,44.4,30.01,NE,56,0.0,0.0,81,0.00,,,0.00,WeatherCatV1.14B232,2013-04-11 14:22:00,
2013-04-11 07:27:00,50.4,44.8,30.01,SSW,202,0.0,0.0,81,0.00,,,0.00,WeatherCatV1.14B232,2013-04-11 14:27:00,
2013-04-11 07:32:00,50.7,44.8,30.01,SSW,201,0.0,0.0,80,0.00,,,0.00,WeatherCatV1.14B232,2013-04-11 14:32:00,
2013-04-11 07:37:00,50.9,45.0,30.01,West,268,0.0,0.0,80,0.00,,,0.00,WeatherCatV1.14B232,2013-04-11 14:37:00,
2013-04-11 07:42:00,51.2,45.9,30.02,West,269,0.0,0.0,82,0.00,,,0.00,WeatherCatV1.14B232,2013-04-11 14:42:00,
2013-04-11 07:47:00,51.6,46.3,30.02,SW,221,0.0,0.0,82,0.00,,,0.00,WeatherCatV1.14B232,2013-04-11 14:47:00,
2013-04-11 07:52:00,51.7,46.4,30.02,WSW,246,0.0,0.0,82,0.00,,,0.00,WeatherCatV1.14B232,2013-04-11 14:52:00,
2013-04-11 07:57:00,51.5,46.5,30.03,WSW,238,0.0,0.0,83,0.00,,,0.00,WeatherCatV1.14B232,2013-04-11 14:57:00,
2013-04-11 08:02:00,51.4,46.4,30.03,WSW,249,1.0,2.0,83,0.00,,,0.00,WeatherCatV1.14B232,2013-04-11 15:02:00,
2013-04-11 08:07:00,51.4,46.4,30.03,SW,236,3.0,4.0,83,0.00,,,0.00,WeatherCatV1.14B232,2013-04-11 15:07:00,
2013-04-11 08:12:00,51.4,46.4,30.03,WSW,243,2.0,3.0,83,0.00,,,0.00,WeatherCatV1.14B232,2013-04-11 15:12:00,
2013-04-11 08:17:00,51.4,46.4,30.03,WSW,253,1.0,2.0,83,0.00,,,0.00,WeatherCatV1.14B232,2013-04-11 15:17:00,
2013-04-11 08:22:00,51.5,46.5,30.03,WSW,240,1.0,3.0,83,0.00,,,0.00,WeatherCatV1.14B232,2013-04-11 15:22:00,
2013-04-11 08:27:00,51.6,46.6,30.02,SW,231,0.0,2.0,83,0.00,,,0.00,WeatherCatV1.14B232,2013-04-11 15:27:00,
2013-04-11 08:32:00,51.9,46.9,30.02,SW,217,1.0,1.0,83,0.00,,,0.00,WeatherCatV1.14B232,2013-04-11 15:32:00,
2013-04-11 08:37:00,52.2,47.2,30.02,WSW,244,1.0,2.0,83,0.00,,,0.00,WeatherCatV1.14B232,2013-04-11 15:37:00,
2013-04-11 08:42:00,52.4,47.1,30.02,West,269,1.0,3.0,82,0.00,,,0.00,WeatherCatV1.14B232,2013-04-11 15:42:00,
2013-04-11 08:47:00,52.6,47.3,30.02,SSW,207,1.0,3.0,82,0.00,,,0.00,WeatherCatV1.14B232,2013-04-11 15:47:00,
2013-04-11 08:52:00,53.0,47.3,30.02,WSW,240,1.0,3.0,81,0.00,,,0.00,WeatherCatV1.14B232,2013-04-11 15:52:00,
2013-04-11 08:57:00,53.2,47.2,30.02,WSW,245,1.0,2.0,80,0.00,,,0.00,WeatherCatV1.14B232,2013-04-11 15:57:00,
2013-04-11 09:02:00,53.7,47.7,30.02,SW,235,0.0,0.0,80,0.00,,,0.00,WeatherCatV1.14B232,2013-04-11 16:02:00,
2013-04-11 09:07:00,54.1,47.7,30.02,SW,224,0.0,0.0,79,0.00,,,0.00,WeatherCatV1.14B232,2013-04-11 16:07:00,
2013-04-11 09:12:00,54.9,48.8,30.02,SW,225,0.0,0.0,80,0.00,,,0.00,WeatherCatV1.14B232,2013-04-11 16:12:00,
2013-04-11 09:17:00,55.7,49.3,30.02,SE,139,0.0,0.0,79,0.00,,,0.00,WeatherCatV1.14B232,2013-04-11 16:17:00,
2013-04-11 09:22:00,56.3,49.2,30.02,South,169,0.0,0.0,77,0.00,,,0.00,WeatherCatV1.14B232,2013-04-11 16:22:00,
2013-04-11 09:27:00,56.6,49.1,30.02,WSW,253,2.0,4.0,76,0.00,,,0.00,WeatherCatV1.14B232,2013-04-11 16:27:00,
2013-04-11 09:32:00,56.2,48.7,30.02,SW,231,1.0,4.0,76,0.00,,,0.00,WeatherCatV1.14B232,2013-04-11 16:32:00,
2013-04-11 09:37:00,56.3,48.5,30.02,WSW,243,2.0,3.0,75,0.00,,,0.00,WeatherCatV1.14B232,2013-04-11 16:37:00,
2013-04-11 09:42:00,56.5,49.0,30.02,SSW,200,1.0,3.0,76,0.00,,,0.00,WeatherCatV1.14B232,2013-04-11 16:42:00,
2013-04-11 09:47:00,56.5,48.7,30.01,West,267,3.0,4.0,75,0.00,,,0.00,WeatherCatV1.14B232,2013-04-11 16:47:00,
2013-04-11 09:52:00,56.6,48.8,30.02,WSW,241,2.0,4.0,75,0.00,,,0.00,WeatherCatV1.14B232,2013-04-11 16:52:00,
2013-04-11 09:57:00,56.9,49.1,30.01,SW,216,3.0,5.0,75,0.00,,,0.00,WeatherCatV1.14B232,2013-04-11 16:57:00,
2013-04-11 10:02:00,57.1,48.9,30.01,WSW,240,4.0,4.0,74,0.00,,,0.00,WeatherCatV1.14B232,2013-04-11 17:02:00,
2013-04-11 10:07:00,57.3,48.7,30.01,West,267,2.0,6.0,73,0.00,,,0.00,WeatherCatV1.14B232,2013-04-11 17:07:00,
2013-04-11 10:12:00,57.4,49.2,30.01,SSW,211,0.0,4.0,74,0.00,,,0.00,WeatherCatV1.14B232,2013-04-11 17:12:00,
2013-04-11 10:17:00,58.0,49.4,30.01,WSW,243,1.0,3.0,73,0.00,,,0.00,WeatherCatV1.14B232,2013-04-11 17:17:00,
2013-04-11 10:22:00,58.1,48.7,30.01,SW,224,2.0,5.0,71,0.00,,,0.00,WeatherCatV1.14B232,2013-04-11 17:22:00,
2013-04-11 10:27:00,58.8,49.4,30.01,WSW,253,4.0,5.0,71,0.00,,,0.00,WeatherCatV1.14B232,2013-04-11 17:27:00,
2013-04-11 10:32:00,59.0,49.2,30.01,WSW,243,3.0,6.0,70,0.00,,,0.00,WeatherCatV1.14B232,2013-04-11 17:32:00,
2013-04-11 10:37:00,59.2,49.4,30.01,West,266,3.0,6.0,70,0.00,,,0.00,WeatherCatV1.14B232,2013-04-11 17:37:00,
2013-04-11 10:42:00,59.3,49.1,30.01,West,262,5.0,7.0,69,0.00,,,0.00,WeatherCatV1.14B232,2013-04-11 17:42:00,
2013-04-11 10:47:00,59.0,48.8,30.01,West,259,5.0,6.0,69,0.00,,,0.00,WeatherCatV1.14B232,2013-04-11 17:47:00,
2013-04-11 10:52:00,58.7,49.3,30.01,SW,214,3.0,6.0,71,0.00,,,0.00,WeatherCatV1.14B232,2013-04-11 17:52:00,
2013-04-11 10:57:00,58.9,48.7,30.01,SW,236,2.0,6.0,69,0.00,,,0.00,WeatherCatV1.14B232,2013-04-11 17:57:00,
2013-04-11 11:02:00,59.1,49.3,30.01,WSW,240,2.0,5.0,70,0.00,,,0.00,WeatherCatV1.14B232,2013-04-11 18:02:00,
2013-04-11 11:07:00,59.0,48.8,30.01,WSW,238,5.0,5.0,69,0.00,,,0.00,WeatherCatV1.14B232,2013-04-11 18:07:00,
2013-04-11 11:12:00,60.1,49.9,30.01,WSW,240,4.0,4.0,69,0.00,,,0.00,WeatherCatV1.14B232,2013-04-11 18:12:00,
2013-04-11 11:17:00,60.8,50.6,30.01,SW,232,2.0,3.0,69,0.00,,,0.00,WeatherCatV1.14B232,2013-04-11 18:17:00,
2013-04-11 11:22:00,61.8,51.1,30.01,West,269,4.0,5.0,68,0.00,,,0.00,WeatherCatV1.14B232,2013-04-11 18:22:00,
2013-04-11 11:27:00,62.0,51.3,30.01,WSW,238,2.0,3.0,68,0.00,,,0.00,WeatherCatV1.14B232,2013-04-11 18:27:00,
2013-04-11 11:32:00,63.3,52.2,30.00,WSW,253,5.0,6.0,67,0.00,,,0.00,WeatherCatV1.14B232,2013-04-11 18:32:00,
2013-04-11 11:37:00,63.3,51.7,30.00,WSW,243,3.0,6.0,66,0.00,,,0.00,WeatherCatV1.14B232,2013-04-11 18:37:00,
2013-04-11 11:42:00,63.7,51.7,30.00,West,259,6.0,6.0,65,0.00,,,0.00,WeatherCatV1.14B232,2013-04-11 18:42:00,
2013-04-11 11:47:00,63.6,51.6,30.00,WSW,250,3.0,5.0,65,0.00,,,0.00,WeatherCatV1.14B232,2013-04-11 18:47:00,
2013-04-11 11:52:00,63.8,50.5,30.00,WSW,254,3.0,4.0,62,0.00,,,0.00,WeatherCatV1.14B232,2013-04-11 18:52:00,
2013-04-11 11:57:00,64.4,51.5,30.00,WSW,248,4.0,4.0,63,0.00,,,0.00,WeatherCatV1.14B232,2013-04-11 18:57:00,
2013-04-11 12:02:00,64.5,51.2,29.99,WSW,246,2.0,4.0,62,0.00,,,0.00,WeatherCatV1.14B232,2013-04-11 19:02:00,
2013-04-11 12:07:00,65.1,52.6,29.99,WSW,242,3.0,4.0,64,0.00,,,0.00,WeatherCatV1.14B232,2013-04-11 19:07:00,
2013-04-11 12:12:00,65.7,52.3,29.99,WSW,248,2.0,3.0,62,0.00,,,0.00,WeatherCatV1.14B232,2013-04-11 19:12:00,
2013-04-11 12:17:00,66.2,52.8,29.99,SSW,193,1.0,4.0,62,0.00,,,0.00,WeatherCatV1.14B232,2013-04-11 19:17:00,
2013-04-11 12:22:00,65.6,51.8,29.98,WSW,248,3.0,4.0,61,0.00,,,0.00,WeatherCatV1.14B232,2013-04-11 19:22:00,
2013-04-11 12:27:00,65.8,51.5,29.98,WNW,288,3.0,5.0,60,0.00,,,0.00,WeatherCatV1.14B232,2013-04-11 19:27:00,
2013-04-11 12:32:00,65.5,51.2,29.98,West,263,3.0,7.0,60,0.00,,,0.00,WeatherCatV1.14B232,2013-04-11 19:32:00,
2013-04-11 12:37:00,66.0,50.8,29.97,West,262,3.0,4.0,58,0.00,,,0.00,WeatherCatV1.14B232,2013-04-11 19:37:00,
2013-04-11 12:42:00,66.0,50.8,29.97,SSW,210,5.0,5.0,58,0.00,,,0.00,WeatherCatV1.14B232,2013-04-11 19:42:00,
2013-04-11 12:47:00,65.9,50.7,29.96,SW,229,5.0,6.0,58,0.00,,,0.00,WeatherCatV1.14B232,2013-04-11 19:47:00,
2013-04-11 12:52:00,65.7,50.5,29.96,WSW,246,5.0,9.0,58,0.00,,,0.00,WeatherCatV1.14B232,2013-04-11 19:52:00,
2013-04-11 12:57:00,65.5,50.8,29.96,WSW,253,4.0,8.0,59,0.00,,,0.00,WeatherCatV1.14B232,2013-04-11 19:57:00,
2013-04-11 13:02:00,65.7,51.0,29.96,WSW,255,7.0,10.0,59,0.00,,,0.00,WeatherCatV1.14B232,2013-04-11 20:02:00,
2013-04-11 13:07:00,66.3,50.6,29.95,WSW,249,5.0,7.0,57,0.00,,,0.00,WeatherCatV1.14B232,2013-04-11 20:07:00,
2013-04-11 13:12:00,66.0,51.3,29.95,WSW,257,6.0,8.0,59,0.00,,,0.00,WeatherCatV1.14B232,2013-04-11 20:12:00,
2013-04-11 13:17:00,65.7,51.0,29.95,WNW,284,6.0,9.0,59,0.00,,,0.00,WeatherCatV1.14B232,2013-04-11 20:17:00,
2013-04-11 13:22:00,64.9,49.8,29.95,SW,215,6.0,8.0,58,0.00,,,0.00,WeatherCatV1.14B232,2013-04-11 20:22:00,
2013-04-11 13:27:00,64.4,49.3,29.95,WSW,245,4.0,6.0,58,0.00,,,0.00,WeatherCatV1.14B232,2013-04-11 20:27:00,
2013-04-11 13:32:00,65.1,50.9,29.95,WSW,255,2.0,7.0,60,0.00,,,0.00,WeatherCatV1.14B232,2013-04-11 20:32:00,
2013-04-11 13:37:00,65.6,51.8,29.95,West,259,5.0,5.0,61,0.00,,,0.00,WeatherCatV1.14B232,2013-04-11 20:37:00,
2013-04-11 13:42:00,66.1,49.9,29.95,WSW,246,5.0,10.0,56,0.00,,,0.00,WeatherCatV1.14B232,2013-04-11 20:42:00,
2013-04-11 13:47:00,66.5,52.2,29.95,WSW,256,5.0,8.0,60,0.00,,,0.00,WeatherCatV1.14B232,2013-04-11 20:47:00,
2013-04-11 13:52:00,66.4,51.6,29.95,WSW,253,4.0,8.0,59,0.00,,,0.00,WeatherCatV1.14B232,2013-04-11 20:52:00,
2013-04-11 13:57:00,67.9,53.0,29.95,SSE,155,1.0,3.0,59,0.00,,,0.00,WeatherCatV1.14B232,2013-04-11 20:57:00,
2013-04-11 14:02:00,68.7,52.4,29.95,West,259,3.0,5.0,56,0.00,,,0.00,WeatherCatV1.14B232,2013-04-11 21:02:00,
2013-04-11 14:07:00,67.8,51.5,29.95,SW,229,2.0,4.0,56,0.00,,,0.00,WeatherCatV1.14B232,2013-04-11 21:07:00,
2013-04-11 14:12:00,68.6,54.6,29.94,WSW,240,0.0,2.0,61,0.00,,,0.00,WeatherCatV1.14B232,2013-04-11 21:12:00,
2013-04-11 14:17:00,70.5,54.0,29.94,West,272,0.0,0.0,56,0.00,,,0.00,WeatherCatV1.14B232,2013-04-11 21:17:00,
2013-04-11 14:22:00,72.4,53.2,29.94,East,96,0.0,0.0,51,0.00,,,0.00,WeatherCatV1.14B232,2013-04-11 21:22:00,
2013-04-11 14:27:00,71.0,51.9,29.94,NE,46,0.0,0.0,51,0.00,,,0.00,WeatherCatV1.14B232,2013-04-11 21:27:00,
2013-04-11 14:32:00,70.3,53.8,29.94,NE,53,0.0,0.0,56,0.00,,,0.00,WeatherCatV1.14B232,2013-04-11 21:32:00,
2013-04-11 14:37:00,70.6,51.0,29.94,NE,42,0.0,1.0,50,0.00,,,0.00,WeatherCatV1.14B232,2013-04-11 21:37:00,
2013-04-11 14:42:00,71.1,52.6,29.93,NE,46,1.0,2.0,52,0.00,,,0.00,WeatherCatV1.14B232,2013-04-11 21:42:00,
2013-04-11 14:47:00,70.2,50.7,29.93,East,91,0.0,2.0,50,0.00,,,0.00,WeatherCatV1.14B232,2013-04-11 21:47:00,
2013-04-11 14:52:00,70.6,50.5,29.93,NE,44,0.0,2.0,49,0.00,,,0.00,WeatherCatV1.14B232,2013-04-11 21:52:00,
2013-04-11 14:57:00,71.8,51.0,29.93,WSW,240,0.0,0.0,48,0.00,,,0.00,WeatherCatV1.14B232,2013-04-11 21:57:00,
2013-04-11 15:02:00,72.7,51.3,29.92,WSW,243,0.0,0.0,47,0.00,,,0.00,WeatherCatV1.14B232,2013-04-11 22:02:00,
2013-04-11 15:07:00,72.7,52.4,29.92,West,263,1.0,2.0,49,0.00,,,0.00,WeatherCatV1.14B232,2013-04-11 22:07:00,
2013-04-11 15:12:00,72.3,52.1,29.92,SW,236,1.0,3.0,49,0.00,,,0.00,WeatherCatV1.14B232,2013-04-11 22:12:00,
2013-04-11 15:17:00,73.3,52.4,29.91,WSW,252,0.0,1.0,48,0.00,,,0.00,WeatherCatV1.14B232,2013-04-11 22:17:00,
2013-04-11 15:22:00,72.6,51.2,29.91,West,269,1.0,3.0,47,0.00,,,0.00,WeatherCatV1.14B232,2013-04-11 22:22:00,
2013-04-11 15:27:00,73.3,52.4,29.90,North,4,0.0,1.0,48,0.00,,,0.00,WeatherCatV1.14B232,2013-04-11 22:27:00,
2013-04-11 15:32:00,72.7,52.4,29.90,SW,231,3.0,3.0,49,0.00,,,0.00,WeatherCatV1.14B232,2013-04-11 22:32:00,
2013-04-11 15:37:00,73.0,53.2,29.90,West,267,2.0,4.0,50,0.00,,,0.00,WeatherCatV1.14B232,2013-04-11 22:37:00,
2013-04-11 15:42:00,71.9,53.3,29.90,SSW,208,2.0,4.0,52,0.00,,,0.00,WeatherCatV1.14B232,2013-04-11 22:42:00,
2013-04-11 15:47:00,71.1,54.1,29.89,SSW,207,1.0,4.0,55,0.00,,,0.00,WeatherCatV1.14B232,2013-04-11 22:47:00,
2013-04-11 15:52:00,71.4,53.9,29.89,West,260,2.0,2.0,54,0.00,,,0.00,WeatherCatV1.14B232,2013-04-11 22:52:00,
2013-04-11 15:57:00,70.6,53.1,29.89,WSW,238,2.0,5.0,54,0.00,,,0.00,WeatherCatV1.14B232,2013-04-11 22:57:00,
2013-04-11 16:02:00,69.8,53.9,29.88,South,176,1.0,3.0,57,0.00,,,0.00,WeatherCatV1.14B232,2013-04-11 23:02:00,
2013-04-11 16:07:00,69.5,53.6,29.88,WSW,243,2.0,4.0,57,0.00,,,0.00,WeatherCatV1.14B232,2013-04-11 23:07:00,
2013-04-11 16:12:00,69.5,54.1,29.88,West,264,2.0,4.0,58,0.00,,,0.00,WeatherCatV1.14B232,2013-04-11 23:12:00,
2013-04-11 16:17:00,69.6,54.2,29.88,WSW,256,3.0,4.0,58,0.00,,,0.00,WeatherCatV1.14B232,2013-04-11 23:17:00,
2013-04-11 16:22:00,69.7,52.8,29.87,SW,217,2.0,3.0,55,0.00,,,0.00,WeatherCatV1.14B232,2013-04-11 23:22:00,
2013-04-11 16:27:00,70.0,53.1,29.87,WSW,243,3.0,5.0,55,0.00,,,0.00,WeatherCatV1.14B232,2013-04-11 23:27:00,
2013-04-11 16:32:00,69.6,50.1,29.87,SW,232,3.0,5.0,50,0.00,,,0.00,WeatherCatV1.14B232,2013-04-11 23:32:00,
2013-04-11 16:37:00,69.7,50.2,29.87,West,262,3.0,5.0,50,0.00,,,0.00,WeatherCatV1.14B232,2013-04-11 23:37:00,
2013-04-11 16:42:00,69.9,51.5,29.87,WSW,246,2.0,6.0,52,0.00,,,0.00,WeatherCatV1.14B232,2013-04-11 23:42:00,
2013-04-11 16:47:00,70.4,51.9,29.87,WSW,246,1.0,3.0,52,0.00,,,0.00,WeatherCatV1.14B232,2013-04-11 23:47:00,
2013-04-11 16:52:00,71.1,53.1,29.87,West,259,0.0,0.0,53,0.00,,,0.00,WeatherCatV1.14B232,2013-04-11 23:52:00,
2013-04-11 16:57:00,72.5,53.3,29.86,NE,44,0.0,2.0,51,0.00,,,0.00,WeatherCatV1.14B232,2013-04-11 23:57:00,
2013-04-11 17:02:00,73.1,53.9,29.86,NE,42,0.0,1.0,51,0.00,,,0.00,WeatherCatV1.14B232,2013-04-12 00:02:00,
2013-04-11 17:07:00,73.5,52.0,29.86,NE,43,2.0,3.0,47,0.00,,,0.00,WeatherCatV1.14B232,2013-04-12 00:07:00,
2013-04-11 17:12:00,73.1,52.2,29.86,NE,47,0.0,1.0,48,0.00,,,0.00,WeatherCatV1.14B232,2013-04-12 00:12:00,
2013-04-11 17:17:00,72.9,53.2,29.86,NE,47,1.0,1.0,50,0.00,,,0.00,WeatherCatV1.14B232,2013-04-12 00:17:00,
2013-04-11 17:22:00,71.6,52.5,29.86,NE,47,0.0,1.0,51,0.00,,,0.00,WeatherCatV1.14B232,2013-04-12 00:22:00,
2013-04-11 17:27:00,71.2,51.6,29.86,NE,47,0.0,1.0,50,0.00,,,0.00,WeatherCatV1.14B232,2013-04-12 00:27:00,
2013-04-11 17:32:00,70.7,50.0,29.86,NE,46,0.0,1.0,48,0.00,,,0.00,WeatherCatV1.14B232,2013-04-12 00:32:00,
2013-04-11 17:37:00,70.1,50.0,29.86,NE,47,1.0,1.0,49,0.00,,,0.00,WeatherCatV1.14B232,2013-04-12 00:37:00,
2013-04-11 17:42:00,69.6,50.7,29.85,NE,46,0.0,0.0,51,0.00,,,0.00,WeatherCatV1.14B232,2013-04-12 00:42:00,
2013-04-11 17:47:00,69.0,48.5,29.86,NE,46,0.0,0.0,48,0.00,,,0.00,WeatherCatV1.14B232,2013-04-12 00:47:00,
2013-04-11 17:52:00,69.0,50.1,29.85,NE,44,0.0,0.0,51,0.00,,,0.00,WeatherCatV1.14B232,2013-04-12 00:52:00,
2013-04-11 17:57:00,68.9,50.5,29.85,NE,44,0.0,0.0,52,0.00,,,0.00,WeatherCatV1.14B232,2013-04-12 00:57:00,
2013-04-11 18:02:00,68.5,49.6,29.85,NNE,22,0.0,0.0,51,0.00,,,0.00,WeatherCatV1.14B232,2013-04-12 01:02:00,
2013-04-11 18:07:00,68.1,50.3,29.84,NNE,32,0.0,0.0,53,0.00,,,0.00,WeatherCatV1.14B232,2013-04-12 01:07:00,
2013-04-11 18:12:00,67.4,50.2,29.84,NE,41,0.0,0.0,54,0.00,,,0.00,WeatherCatV1.14B232,2013-04-12 01:12:00,
2013-04-11 18:17:00,66.8,50.6,29.84,NE,41,0.0,0.0,56,0.00,,,0.00,WeatherCatV1.14B232,2013-04-12 01:17:00,
2013-04-11 18:22:00,66.5,50.3,29.85,NE,41,0.0,0.0,56,0.00,,,0.00,WeatherCatV1.14B232,2013-04-12 01:22:00,
2013-04-11 18:27:00,66.0,49.4,29.84,NE,41,0.0,0.0,55,0.00,,,0.00,WeatherCatV1.14B232,2013-04-12 01:27:00,
2013-04-11 18:32:00,65.5,48.4,29.84,NE,41,0.0,0.0,54,0.00,,,0.00,WeatherCatV1.14B232,2013-04-12 01:32:00,
2013-04-11 18:37:00,65.2,48.1,29.84,NE,41,0.0,0.0,54,0.00,,,0.00,WeatherCatV1.14B232,2013-04-12 01:37:00,
2013-04-11 18:42:00,65.2,50.0,29.84,SW,228,1.0,2.0,58,0.00,,,0.00,WeatherCatV1.14B232,2013-04-12 01:42:00,
2013-04-11 18:47:00,65.1,51.3,29.84,WSW,249,1.0,2.0,61,0.00,,,0.00,WeatherCatV1.14B232,2013-04-12 01:47:00,
2013-04-11 18:52:00,64.9,50.7,29.84,West,273,0.0,1.0,60,0.00,,,0.00,WeatherCatV1.14B232,2013-04-12 01:52:00,
2013-04-11 18:57:00,64.5,48.4,29.84,NE,34,1.0,1.0,56,0.00,,,0.00,WeatherCatV1.14B232,2013-04-12 01:57:00,
2013-04-11 19:02:00,64.0,48.0,29.84,NE,34,0.0,0.0,56,0.00,,,0.00,WeatherCatV1.14B232,2013-04-12 02:02:00,
2013-04-11 19:07:00,63.5,48.5,29.85,NE,34,0.0,0.0,58,0.00,,,0.00,WeatherCatV1.14B232,2013-04-12 02:07:00,
2013-04-11 19:12:00,63.2,50.8,29.85,West,266,0.0,0.0,64,0.00,,,0.00,WeatherCatV1.14B232,2013-04-12 02:12:00,
2013-04-11 19:17:00,63.0,51.0,29.85,West,266,1.0,1.0,65,0.00,,,0.00,WeatherCatV1.14B232,2013-04-12 02:17:00,
2013-04-11 19:22:00,62.6,50.2,29.85,SW,218,1.0,2.0,64,0.00,,,0.00,WeatherCatV1.14B232,2013-04-12 02:22:00,
2013-04-11 19:27:00,61.8,50.3,29.85,SE,139,0.0,0.0,66,0.00,,,0.00,WeatherCatV1.14B232,2013-04-12 02:27:00,
2013-04-11 19:32:00,61.0,50.0,29.85,SE,134,0.0,0.0,67,0.00,,,0.00,WeatherCatV1.14B232,2013-04-12 02:32:00,
2013-04-11 19:37:00,60.3,49.7,29.85,SW,232,0.0,0.0,68,0.00,,,0.00,WeatherCatV1.14B232,2013-04-12 02:37:00,
2013-04-11 19:42:00,59.5,49.3,29.85,WSW,240,0.0,0.0,69,0.00,,,0.00,WeatherCatV1.14B232,2013-04-12 02:42:00,
2013-04-11 19:47:00,59.0,49.2,29.85,SW,221,0.0,0.0,70,0.00,,,0.00,WeatherCatV1.14B232,2013-04-12 02:47:00,
2013-04-11 19:52:00,58.7,48.9,29.85,SSW,210,0.0,0.0,70,0.00,,,0.00,WeatherCatV1.14B232,2013-04-12 02:52:00,
2013-04-11 19:57:00,58.5,48.7,29.84,WSW,240,0.0,1.0,70,0.00,,,0.00,WeatherCatV1.14B232,2013-04-12 02:57:00,
2013-04-11 20:02:00,58.3,48.9,29.84,WSW,240,1.0,2.0,71,0.00,,,0.00,WeatherCatV1.14B232,2013-04-12 03:02:00,
2013-04-11 20:07:00,57.6,48.6,29.84,SW,229,2.0,3.0,72,0.00,,,0.00,WeatherCatV1.14B232,2013-04-12 03:07:00,
2013-04-11 20:12:00,57.3,48.3,29.84,SW,236,2.0,3.0,72,0.00,,,0.00,WeatherCatV1.14B232,2013-04-12 03:12:00,
2013-04-11 20:17:00,56.6,48.0,29.84,WSW,246,1.0,3.0,73,0.00,,,0.00,WeatherCatV1.14B232,2013-04-12 03:17:00,
2013-04-11 20:22:00,55.5,47.7,29.84,SW,218,2.0,3.0,75,0.00,,,0.00,WeatherCatV1.14B232,2013-04-12 03:22:00,
2013-04-11 20:27:00,54.8,47.4,29.84,WSW,243,3.0,6.0,76,0.00,,,0.00,WeatherCatV1.14B232,2013-04-12 03:27:00,
2013-04-11 20:32:00,54.1,47.4,29.85,WSW,257,3.0,9.0,78,0.00,,,0.00,WeatherCatV1.14B232,2013-04-12 03:32:00,
2013-04-11 20:37:00,53.8,47.4,29.85,West,262,4.0,6.0,79,0.00,,,0.00,WeatherCatV1.14B232,2013-04-12 03:37:00,
2013-04-11 20:42:00,53.9,47.2,29.85,WSW,250,2.0,3.0,78,0.00,,,0.00,WeatherCatV1.14B232,2013-04-12 03:42:00,
2013-04-11 20:47:00,54.1,47.4,29.85,West,262,1.0,3.0,78,0.00,,,0.00,WeatherCatV1.14B232,2013-04-12 03:47:00,
2013-04-11 20:52:00,54.5,47.1,29.86,WSW,245,4.0,5.0,76,0.00,,,0.00,WeatherCatV1.14B232,2013-04-12 03:52:00,
2013-04-11 20:57:00,54.9,47.1,29.86,SW,236,1.0,2.0,75,0.00,,,0.00,WeatherCatV1.14B232,2013-04-12 03:57:00,
2013-04-11 21:00:00,55.0,47.2,29.86,SW,233,1.0,1.0,75,0.00,,,0.00,WeatherCatV1.14B232,2013-04-12 04:00:00,
2013-04-11 21:01:00,55.1,47.0,29.86,WSW,240,0.0,1.0,74,0.00,,,0.00,WeatherCatV1.14B232,2013-04-12 04:01:00,
2013-04-11 21:06:00,55.5,47.0,29.86,WSW,243,1.0,1.0,73,0.00,,,0.00,WeatherCatV1.14B232,2013-04-12 04:06:00,
2013-04-11 21:11:00,55.8,47.3,29.87,WSW,240,0.0,0.0,73,0.00,,,0.00,WeatherCatV1.14B232,2013-04-12 04:11:00,
2013-04-11 21:16:00,56.1,47.2,29.86,SW,225,0.0,0.0,72,0.00,,,0.00,WeatherCatV1.14B232,2013-04-12 04:16:00,
2013-04-11 21:21:00,56.1,47.2,29.86,SW,225,0.0,0.0,72,0.00,,,0.00,WeatherCatV1.14B232,2013-04-12 04:21:00,
2013-04-11 21:26:00,56.0,47.1,29.87,SW,225,0.0,0.0,72,0.00,,,0.00,WeatherCatV1.14B232,2013-04-12 04:26:00,
2013-04-11 21:31:00,55.8,46.9,29.87,SW,225,0.0,0.0,72,0.00,,,0.00,WeatherCatV1.14B232,2013-04-12 04:31:00,
2013-04-11 21:36:00,55.5,47.0,29.87,SW,225,0.0,0.0,73,0.00,,,0.00,WeatherCatV1.14B232,2013-04-12 04:36:00,
2013-04-11 21:41:00,55.3,46.8,29.87,SW,225,0.0,0.0,73,0.00,,,0.00,WeatherCatV1.14B232,2013-04-12 04:41:00,
2013-04-11 21:46:00,55.0,46.9,29.87,SW,225,0.0,0.0,74,0.00,,,0.00,WeatherCatV1.14B232,2013-04-12 04:46:00,
2013-04-11 21:51:00,54.9,46.8,29.87,SW,225,0.0,0.0,74,0.00,,,0.00,WeatherCatV1.14B232,2013-04-12 04:51:00,
2013-04-11 21:56:00,54.9,47.1,29.88,NE,49,0.0,0.0,75,0.00,,,0.00,WeatherCatV1.14B232,2013-04-12 04:56:00,
2013-04-11 22:01:00,55.1,47.3,29.88,NE,50,0.0,0.0,75,0.00,,,0.00,WeatherCatV1.14B232,2013-04-12 05:01:00,
2013-04-11 22:06:00,55.2,48.1,29.88,NE,49,0.0,0.0,77,0.00,,,0.00,WeatherCatV1.14B232,2013-04-12 05:06:00,
2013-04-11 22:11:00,55.4,48.3,29.88,NE,50,0.0,0.0,77,0.00,,,0.00,WeatherCatV1.14B232,2013-04-12 05:11:00,
2013-04-11 22:16:00,55.5,48.4,29.88,SW,228,0.0,0.0,77,0.00,,,0.00,WeatherCatV1.14B232,2013-04-12 05:16:00,
2013-04-11 22:21:00,55.1,47.7,29.88,SW,233,0.0,0.0,76,0.00,,,0.00,WeatherCatV1.14B232,2013-04-12 05:21:00,
2013-04-11 22:26:00,54.1,47.0,29.87,SW,216,2.0,3.0,77,0.00,,,0.00,WeatherCatV1.14B232,2013-04-12 05:26:00,
2013-04-11 22:31:00,53.0,46.7,29.87,WSW,256,2.0,2.0,79,0.00,,,0.00,WeatherCatV1.14B232,2013-04-12 05:31:00,
2013-04-11 22:36:00,52.4,46.4,29.87,South,190,1.0,3.0,80,0.00,,,0.00,WeatherCatV1.14B232,2013-04-12 05:36:00,
2013-04-11 22:41:00,51.9,46.6,29.87,SW,233,2.0,3.0,82,0.00,,,0.00,WeatherCatV1.14B232,2013-04-12 05:41:00,
2013-04-11 22:46:00,51.4,46.1,29.87,SW,231,3.0,3.0,82,0.00,,,0.00,WeatherCatV1.14B232,2013-04-12 05:46:00,
2013-04-11 22:51:00,51.2,45.6,29.87,SW,226,2.0,3.0,81,0.00,,,0.00,WeatherCatV1.14B232,2013-04-12 05:51:00,
2013-04-11 22:56:00,51.4,45.8,29.87,WSW,239,2.0,3.0,81,0.00,,,0.00,WeatherCatV1.14B232,2013-04-12 05:56:00,
2013-04-11 23:01:00,51.4,45.4,29.87,WSW,250,2.0,3.0,80,0.00,,,0.00,WeatherCatV1.14B232,2013-04-12 06:01:00,
2013-04-11 23:06:00,51.6,45.6,29.87,SW,218,1.0,3.0,80,0.00,,,0.00,WeatherCatV1.14B232,2013-04-12 06:06:00,
2013-04-11 23:11:00,51.6,45.3,29.87,SW,228,0.0,1.0,79,0.00,,,0.00,WeatherCatV1.14B232,2013-04-12 06:11:00,
2013-04-11 23:16:00,51.6,45.3,29.87,SSE,164,0.0,1.0,79,0.00,,,0.00,WeatherCatV1.14B232,2013-04-12 06:16:00,
2013-04-11 23:21:00,51.5,45.2,29.87,SSE,153,0.0,0.0,79,0.00,,,0.00,WeatherCatV1.14B232,2013-04-12 06:21:00,
2013-04-11 23:26:00,51.6,45.6,29.87,SSE,150,0.0,0.0,80,0.00,,,0.00,WeatherCatV1.14B232,2013-04-12 06:26:00,
2013-04-11 23:31:00,51.8,45.8,29.86,SSE,150,0.0,0.0,80,0.00,,,0.00,WeatherCatV1.14B232,2013-04-12 06:31:00,
2013-04-11 23:36:00,51.9,45.9,29.86,SSE,150,0.0,0.0,80,0.00,,,0.00,WeatherCatV1.14B232,2013-04-12 06:36:00,
2013-04-11 23:41:00,52.0,45.7,29.86,SSE,160,0.0,0.0,79,0.00,,,0.00,WeatherCatV1.14B232,2013-04-12 06:41:00,
2013-04-11 23:46:00,51.8,45.8,29.86,SW,232,1.0,2.0,80,0.00,,,0.00,WeatherCatV1.14B232,2013-04-12 06:46:00,
2013-04-11 23:51:00,51.5,45.5,29.86,SW,235,2.0,3.0,80,0.00,,,0.00,WeatherCatV1.14B232,2013-04-12 06:51:00,
2013-04-11 23:56:00,51.4,45.8,29.86,SSW,212,2.0,3.0,81,0.00,,,0.00,WeatherCatV1.14B232,2013-04-12 06:56:00,